Time,TemperatureF,DewpointF,PressureIn,WindDirection,WindDirectionDegrees,WindSpeedMPH,WindSpeedGustMPH,Humidity,HourlyPrecipIn,Conditions,Clouds,dailyrainin,SoftwareType,DateUTC
2013-05-20 00:00:00,70.3,62.0,29.89,SE,128,0.0,0.0,75,0.00,,,0.00,Wunderground v.1.15,2013-05-20 04:00:00,
2013-05-20 00:05:00,70.4,61.7,29.88,SE,128,0.0,0.0,74,0.00,,,0.00,Wunderground v.1.15,2013-05-20 04:05:00,
2013-05-20 00:10:00,69.7,61.0,29.89,SE,129,0.0,0.0,74,0.00,,,0.00,Wunderground v.1.15,2013-05-20 04:10:00,
2013-05-20 00:15:00,68.9,61.4,29.89,SE,128,0.0,0.0,77,0.00,,,0.00,Wunderground v.1.15,2013-05-20 04:15:00,
2013-05-20 00:20:00,68.4,61.3,29.88,SE,128,0.0,0.0,78,0.00,,,0.00,Wunderground v.1.15,2013-05-20 04:20:00,
2013-05-20 00:25:00,68.4,61.6,29.88,ESE,107,0.0,1.0,79,0.00,,,0.00,Wunderground v.1.15,2013-05-20 04:25:00,
2013-05-20 00:30:00,69.0,61.9,29.88,ESE,107,0.0,1.0,78,0.00,,,0.00,Wunderground v.1.15,2013-05-20 04:30:00,
2013-05-20 00:40:00,69.8,62.3,29.87,East,99,1.0,2.0,77,0.00,,,0.00,Wunderground v.1.15,2013-05-20 04:40:00,
2013-05-20 00:45:00,70.1,62.2,29.87,ESE,120,2.0,2.0,76,0.00,,,0.00,Wunderground v.1.15,2013-05-20 04:45:00,
2013-05-20 00:50:00,70.2,62.3,29.87,SE,128,2.0,2.0,76,0.00,,,0.00,Wunderground v.1.15,2013-05-20 04:50:00,
2013-05-20 00:55:00,70.1,62.2,29.88,ESE,115,1.0,2.0,76,0.00,,,0.00,Wunderground v.1.15,2013-05-20 04:55:00,
2013-05-20 01:00:00,69.8,61.9,29.88,SSE,151,0.0,0.0,76,0.00,,,0.00,Wunderground v.1.15,2013-05-20 05:00:00,
2013-05-20 01:10:00,69.7,62.2,29.88,SE,140,0.0,0.0,77,0.00,,,0.00,Wunderground v.1.15,2013-05-20 05:10:00,
2013-05-20 01:15:00,69.5,62.0,29.88,SE,140,0.0,0.0,77,0.00,,,0.00,Wunderground v.1.15,2013-05-20 05:15:00,
2013-05-20 01:20:00,69.4,61.9,29.87,SSE,160,0.0,0.0,77,0.00,,,0.00,Wunderground v.1.15,2013-05-20 05:20:00,
2013-05-20 01:25:00,69.5,62.0,29.87,South,186,0.0,0.0,77,0.00,,,0.00,Wunderground v.1.15,2013-05-20 05:25:00,
2013-05-20 01:30:00,69.2,62.0,29.87,SW,229,0.0,0.0,78,0.00,,,0.00,Wunderground v.1.15,2013-05-20 05:30:00,
2013-05-20 01:35:00,69.0,61.9,29.88,SSE,158,0.0,0.0,78,0.00,,,0.00,Wunderground v.1.15,2013-05-20 05:35:00,
2013-05-20 01:45:00,69.0,62.2,29.87,SE,125,0.0,1.0,79,0.00,,,0.00,Wunderground v.1.15,2013-05-20 05:45:00,
2013-05-20 01:50:00,69.0,62.2,29.87,SE,138,1.0,1.0,79,0.00,,,0.00,Wunderground v.1.15,2013-05-20 05:50:00,
2013-05-20 01:55:00,68.9,62.1,29.87,ESE,110,1.0,1.0,79,0.00,,,0.00,Wunderground v.1.15,2013-05-20 05:55:00,
2013-05-20 02:00:00,68.8,62.0,29.87,East,94,2.0,2.0,79,0.00,,,0.00,Wunderground v.1.15,2013-05-20 06:00:00,
2013-05-20 02:10:00,68.4,62.0,29.88,ESE,117,2.0,2.0,80,0.00,,,0.00,Wunderground v.1.15,2013-05-20 06:10:00,
2013-05-20 02:20:00,68.4,62.3,29.88,ESE,121,0.0,0.0,81,0.00,,,0.00,Wunderground v.1.15,2013-05-20 06:20:00,
2013-05-20 02:25:00,68.8,62.4,29.88,East,96,1.0,2.0,80,0.00,,,0.00,Wunderground v.1.15,2013-05-20 06:25:00,
2013-05-20 02:30:00,69.0,62.6,29.88,ESE,118,1.0,3.0,80,0.00,,,0.00,Wunderground v.1.15,2013-05-20 06:30:00,
2013-05-20 02:35:00,68.9,62.5,29.87,ESE,110,2.0,3.0,80,0.00,,,0.00,Wunderground v.1.15,2013-05-20 06:35:00,
2013-05-20 02:40:00,69.0,62.6,29.87,ESE,102,2.0,2.0,80,0.00,,,0.00,Wunderground v.1.15,2013-05-20 06:40:00,
2013-05-20 02:50:00,68.9,62.5,29.88,ESE,105,2.0,2.0,80,0.00,,,0.00,Wunderground v.1.15,2013-05-20 06:50:00,
2013-05-20 02:55:00,69.0,62.6,29.88,ESE,117,1.0,2.0,80,0.00,,,0.00,Wunderground v.1.15,2013-05-20 06:55:00,
2013-05-20 03:00:00,69.2,62.8,29.88,SSE,151,1.0,1.0,80,0.00,,,0.00,Wunderground v.1.15,2013-05-20 07:00:00,
2013-05-20 03:10:00,69.0,62.9,29.87,SSE,152,1.0,1.0,81,0.00,,,0.00,Wunderground v.1.15,2013-05-20 07:10:00,
2013-05-20 03:15:00,69.0,62.9,29.87,South,189,1.0,1.0,81,0.00,,,0.00,Wunderground v.1.15,2013-05-20 07:15:00,
2013-05-20 03:25:00,69.0,62.9,29.87,SSW,200,1.0,1.0,81,0.00,,,0.00,Wunderground v.1.15,2013-05-20 07:25:00,
2013-05-20 03:30:00,69.1,63.0,29.87,SE,138,1.0,1.0,81,0.00,,,0.00,Wunderground v.1.15,2013-05-20 07:30:00,
2013-05-20 03:35:00,69.2,63.1,29.87,ESE,121,1.0,1.0,81,0.00,,,0.00,Wunderground v.1.15,2013-05-20 07:35:00,
2013-05-20 03:40:00,69.1,63.0,29.87,SSE,148,1.0,2.0,81,0.00,,,0.00,Wunderground v.1.15,2013-05-20 07:40:00,
2013-05-20 03:45:00,69.2,63.1,29.87,SSE,148,1.0,2.0,81,0.00,,,0.00,Wunderground v.1.15,2013-05-20 07:45:00,
2013-05-20 03:50:00,69.1,63.4,29.87,SSE,159,1.0,3.0,82,0.00,,,0.00,Wunderground v.1.15,2013-05-20 07:50:00,
2013-05-20 03:55:00,69.2,63.1,29.87,SSW,205,1.0,3.0,81,0.00,,,0.00,Wunderground v.1.15,2013-05-20 07:55:00,
2013-05-20 04:05:00,69.3,63.6,29.87,SSE,153,1.0,2.0,82,0.00,,,0.00,Wunderground v.1.15,2013-05-20 08:05:00,
2013-05-20 04:10:00,69.4,63.3,29.87,SSW,203,1.0,2.0,81,0.00,,,0.00,Wunderground v.1.15,2013-05-20 08:10:00,
2013-05-20 04:15:00,69.4,63.3,29.87,SSE,166,2.0,2.0,81,0.00,,,0.00,Wunderground v.1.15,2013-05-20 08:15:00,
2013-05-20 04:20:00,69.4,63.3,29.87,South,169,2.0,2.0,81,0.00,,,0.00,Wunderground v.1.15,2013-05-20 08:20:00,
2013-05-20 04:25:00,69.2,63.5,29.87,South,172,1.0,2.0,82,0.00,,,0.00,Wunderground v.1.15,2013-05-20 08:25:00,
2013-05-20 04:30:00,69.1,63.4,29.87,South,183,0.0,0.0,82,0.00,,,0.00,Wunderground v.1.15,2013-05-20 08:30:00,
2013-05-20 04:35:00,68.9,63.5,29.87,SSW,193,0.0,0.0,83,0.00,,,0.00,Wunderground v.1.15,2013-05-20 08:35:00,
2013-05-20 04:40:00,68.8,63.4,29.87,SSE,150,0.0,1.0,83,0.00,,,0.00,Wunderground v.1.15,2013-05-20 08:40:00,
2013-05-20 04:45:00,68.7,63.3,29.87,SE,134,1.0,1.0,83,0.00,,,0.00,Wunderground v.1.15,2013-05-20 08:45:00,
2013-05-20 04:50:00,68.8,63.4,29.87,SE,131,2.0,2.0,83,0.00,,,0.00,Wunderground v.1.15,2013-05-20 08:50:00,
2013-05-20 05:00:00,68.5,63.5,29.87,ESE,105,1.0,1.0,84,0.00,,,0.00,Wunderground v.1.15,2013-05-20 09:00:00,
2013-05-20 05:10:00,68.7,63.7,29.86,SE,125,2.0,2.0,84,0.00,,,0.00,Wunderground v.1.15,2013-05-20 09:10:00,
2013-05-20 05:15:00,68.6,63.6,29.86,ENE,70,2.0,2.0,84,0.00,,,0.00,Wunderground v.1.15,2013-05-20 09:15:00,
2013-05-20 05:20:00,68.7,63.7,29.86,East,87,3.0,3.0,84,0.00,,,0.00,Wunderground v.1.15,2013-05-20 09:20:00,
2013-05-20 05:30:00,68.5,63.5,29.86,ESE,110,2.0,2.0,84,0.00,,,0.00,Wunderground v.1.15,2013-05-20 09:30:00,
2013-05-20 05:35:00,68.4,63.7,29.85,East,100,2.0,3.0,85,0.00,,,0.00,Wunderground v.1.15,2013-05-20 09:35:00,
2013-05-20 05:40:00,68.4,63.7,29.85,ESE,108,3.0,3.0,85,0.00,,,0.00,Wunderground v.1.15,2013-05-20 09:40:00,
2013-05-20 05:45:00,68.2,63.9,29.84,ESE,118,3.0,3.0,86,0.00,,,0.00,Wunderground v.1.15,2013-05-20 09:45:00,
2013-05-20 05:50:00,68.1,63.8,29.84,SE,128,3.0,3.0,86,0.00,,,0.00,Wunderground v.1.15,2013-05-20 09:50:00,
2013-05-20 05:55:00,67.8,63.5,29.84,SE,134,2.0,3.0,86,0.00,,,0.00,Wunderground v.1.15,2013-05-20 09:55:00,
2013-05-20 06:00:00,67.7,63.7,29.84,ESE,117,2.0,2.0,87,0.00,,,0.00,Wunderground v.1.15,2013-05-20 10:00:00,
2013-05-20 06:10:00,67.2,63.5,29.84,SE,128,3.0,3.0,88,0.00,,,0.00,Wunderground v.1.15,2013-05-20 10:10:00,
2013-05-20 06:15:00,67.7,64.0,29.84,SE,125,3.0,3.0,88,0.00,,,0.00,Wunderground v.1.15,2013-05-20 10:15:00,
2013-05-20 06:20:00,67.6,63.9,29.85,South,174,2.0,2.0,88,0.00,,,0.00,Wunderground v.1.15,2013-05-20 10:20:00,
2013-05-20 06:25:00,67.7,64.0,29.85,SE,126,1.0,2.0,88,0.00,,,0.00,Wunderground v.1.15,2013-05-20 10:25:00,
2013-05-20 06:35:00,67.6,63.9,29.86,SSE,160,1.0,2.0,88,0.00,,,0.00,Wunderground v.1.15,2013-05-20 10:35:00,
2013-05-20 06:40:00,67.5,63.8,29.87,South,177,2.0,2.0,88,0.00,,,0.00,Wunderground v.1.15,2013-05-20 10:40:00,
2013-05-20 06:45:00,67.5,63.8,29.87,South,169,2.0,2.0,88,0.00,,,0.00,Wunderground v.1.15,2013-05-20 10:45:00,
2013-05-20 06:50:00,67.5,63.8,29.87,SSW,207,2.0,2.0,88,0.00,,,0.00,Wunderground v.1.15,2013-05-20 10:50:00,
2013-05-20 06:55:00,67.6,63.9,29.88,SSE,163,2.0,2.0,88,0.00,,,0.00,Wunderground v.1.15,2013-05-20 10:55:00,
2013-05-20 07:00:00,67.7,64.0,29.88,South,176,2.0,2.0,88,0.00,,,0.00,Wunderground v.1.15,2013-05-20 11:00:00,
2013-05-20 07:10:00,67.8,64.4,29.88,South,180,2.0,3.0,89,0.00,,,0.00,Wunderground v.1.15,2013-05-20 11:10:00,
2013-05-20 07:15:00,68.0,64.6,29.88,South,179,2.0,3.0,89,0.00,,,0.00,Wunderground v.1.15,2013-05-20 11:15:00,
2013-05-20 07:20:00,68.2,64.8,29.88,South,169,2.0,2.0,89,0.00,,,0.00,Wunderground v.1.15,2013-05-20 11:20:00,
2013-05-20 07:25:00,68.4,65.0,29.88,SE,138,2.0,3.0,89,0.00,,,0.00,Wunderground v.1.15,2013-05-20 11:25:00,
2013-05-20 07:30:00,68.8,65.4,29.88,SW,218,2.0,3.0,89,0.00,,,0.00,Wunderground v.1.15,2013-05-20 11:30:00,
2013-05-20 07:35:00,69.3,65.6,29.89,SSE,160,3.0,3.0,88,0.00,,,0.00,Wunderground v.1.15,2013-05-20 11:35:00,
2013-05-20 07:40:00,69.7,65.7,29.88,South,172,3.0,7.0,87,0.00,,,0.00,Wunderground v.1.15,2013-05-20 11:40:00,
2013-05-20 07:45:00,70.2,66.1,29.88,SW,229,3.0,7.0,87,0.00,,,0.00,Wunderground v.1.15,2013-05-20 11:45:00,
2013-05-20 07:50:00,70.4,66.3,29.88,WSW,242,3.0,4.0,87,0.00,,,0.00,Wunderground v.1.15,2013-05-20 11:50:00,
2013-05-20 07:55:00,70.7,66.3,29.88,SSW,200,4.0,4.0,86,0.00,,,0.00,Wunderground v.1.15,2013-05-20 11:55:00,
2013-05-20 08:00:00,71.0,66.6,29.89,SSE,160,3.0,7.0,86,0.00,,,0.00,Wunderground v.1.15,2013-05-20 12:00:00,
2013-05-20 08:10:00,71.5,67.1,29.88,SW,217,3.0,5.0,86,0.00,,,0.00,Wunderground v.1.15,2013-05-20 12:10:00,
2013-05-20 08:15:00,71.8,67.0,29.88,SSW,210,4.0,5.0,85,0.00,,,0.00,Wunderground v.1.15,2013-05-20 12:15:00,
2013-05-20 08:20:00,72.2,67.4,29.88,SSE,165,4.0,5.0,85,0.00,,,0.00,Wunderground v.1.15,2013-05-20 12:20:00,
2013-05-20 08:25:00,72.7,67.6,29.88,WSW,250,5.0,6.0,84,0.00,,,0.00,Wunderground v.1.15,2013-05-20 12:25:00,
2013-05-20 08:30:00,73.0,67.9,29.88,SW,219,5.0,6.0,84,0.00,,,0.00,Wunderground v.1.15,2013-05-20 12:30:00,
2013-05-20 08:35:00,73.3,67.8,29.89,SW,231,5.0,6.0,83,0.00,,,0.00,Wunderground v.1.15,2013-05-20 12:35:00,
2013-05-20 08:45:00,73.5,68.0,29.89,SW,214,4.0,5.0,83,0.00,,,0.00,Wunderground v.1.15,2013-05-20 12:45:00,
2013-05-20 08:50:00,73.7,68.2,29.89,SSW,200,4.0,5.0,83,0.00,,,0.00,Wunderground v.1.15,2013-05-20 12:50:00,
2013-05-20 08:55:00,73.7,68.2,29.89,South,190,4.0,5.0,83,0.00,,,0.00,Wunderground v.1.15,2013-05-20 12:55:00,
2013-05-20 09:00:00,73.8,68.3,29.89,SW,226,3.0,4.0,83,0.00,,,0.00,Wunderground v.1.15,2013-05-20 13:00:00,
2013-05-20 09:10:00,73.9,68.4,29.89,South,180,4.0,4.0,83,0.00,,,0.00,Wunderground v.1.15,2013-05-20 13:10:00,
2013-05-20 09:15:00,74.0,68.5,29.89,SW,230,4.0,4.0,83,0.00,,,0.00,Wunderground v.1.15,2013-05-20 13:15:00,
2013-05-20 09:20:00,74.2,68.3,29.89,SW,228,4.0,4.0,82,0.00,,,0.00,Wunderground v.1.15,2013-05-20 13:20:00,
2013-05-20 09:25:00,74.5,68.6,29.88,West,281,4.0,5.0,82,0.00,,,0.00,Wunderground v.1.15,2013-05-20 13:25:00,
2013-05-20 09:30:00,74.6,68.7,29.88,SSW,197,5.0,6.0,82,0.00,,,0.00,Wunderground v.1.15,2013-05-20 13:30:00,
2013-05-20 09:35:00,74.8,68.9,29.88,SW,232,5.0,6.0,82,0.00,,,0.00,Wunderground v.1.15,2013-05-20 13:35:00,
2013-05-20 09:40:00,75.1,68.9,29.88,SW,229,5.0,5.0,81,0.00,,,0.00,Wunderground v.1.15,2013-05-20 13:40:00,
2013-05-20 09:50:00,75.8,69.2,29.88,SW,236,6.0,6.0,80,0.00,,,0.00,Wunderground v.1.15,2013-05-20 13:50:00,
2013-05-20 09:55:00,76.3,69.3,29.87,WSW,252,5.0,6.0,79,0.00,,,0.00,Wunderground v.1.15,2013-05-20 13:55:00,
2013-05-20 10:00:00,76.8,69.4,29.87,SSW,212,5.0,5.0,78,0.00,,,0.00,Wunderground v.1.15,2013-05-20 14:00:00,
2013-05-20 10:10:00,77.5,69.3,29.87,SSW,206,5.0,5.0,76,0.00,,,0.00,Wunderground v.1.15,2013-05-20 14:10:00,
2013-05-20 10:20:00,77.9,69.3,29.87,WSW,245,5.0,5.0,75,0.00,,,0.00,Wunderground v.1.15,2013-05-20 14:20:00,
2013-05-20 10:25:00,77.9,68.9,29.87,West,266,5.0,5.0,74,0.00,,,0.00,Wunderground v.1.15,2013-05-20 14:25:00,
2013-05-20 10:30:00,77.7,69.1,29.86,SW,236,5.0,5.0,75,0.00,,,0.00,Wunderground v.1.15,2013-05-20 14:30:00,
2013-05-20 10:35:00,78.3,69.3,29.86,SSW,200,4.0,5.0,74,0.00,,,0.00,Wunderground v.1.15,2013-05-20 14:35:00,
2013-05-20 10:40:00,78.8,69.4,29.86,South,173,4.0,8.0,73,0.00,,,0.00,Wunderground v.1.15,2013-05-20 14:40:00,
2013-05-20 10:45:00,79.0,69.2,29.86,SSW,195,5.0,8.0,72,0.00,,,0.00,Wunderground v.1.15,2013-05-20 14:45:00,
2013-05-20 10:50:00,78.8,69.0,29.86,SSE,157,6.0,7.0,72,0.00,,,0.00,Wunderground v.1.15,2013-05-20 14:50:00,
2013-05-20 11:00:00,79.0,69.6,29.86,WSW,239,5.0,6.0,73,0.00,,,0.00,Wunderground v.1.15,2013-05-20 15:00:00,
2013-05-20 11:10:00,79.0,68.8,29.85,SSW,192,5.0,7.0,71,0.00,,,0.00,Wunderground v.1.15,2013-05-20 15:10:00,
2013-05-20 11:15:00,79.4,69.2,29.86,SSW,204,5.0,7.0,71,0.00,,,0.00,Wunderground v.1.15,2013-05-20 15:15:00,
2013-05-20 11:20:00,79.4,68.8,29.86,WSW,241,5.0,6.0,70,0.00,,,0.00,Wunderground v.1.15,2013-05-20 15:20:00,
2013-05-20 11:25:00,79.6,69.0,29.85,SSW,204,5.0,6.0,70,0.00,,,0.00,Wunderground v.1.15,2013-05-20 15:25:00,
2013-05-20 11:30:00,80.5,69.4,29.85,South,183,5.0,7.0,69,0.00,,,0.00,Wunderground v.1.15,2013-05-20 15:30:00,
2013-05-20 11:35:00,81.2,68.8,29.85,WSW,245,6.0,7.0,66,0.00,,,0.00,Wunderground v.1.15,2013-05-20 15:35:00,
2013-05-20 11:40:00,81.3,68.9,29.85,WSW,252,6.0,9.0,66,0.00,,,0.00,Wunderground v.1.15,2013-05-20 15:40:00,
2013-05-20 11:45:00,81.3,69.3,29.85,South,170,7.0,9.0,67,0.00,,,0.00,Wunderground v.1.15,2013-05-20 15:45:00,
2013-05-20 11:55:00,81.4,68.9,29.86,SSW,212,7.0,10.0,66,0.00,,,0.00,Wunderground v.1.15,2013-05-20 15:55:00,
2013-05-20 12:00:00,81.6,68.7,29.86,SSW,207,6.0,6.0,65,0.00,,,0.00,Wunderground v.1.15,2013-05-20 16:00:00,
2013-05-20 12:10:00,81.3,68.9,29.87,WSW,253,6.0,6.0,66,0.00,,,0.00,Wunderground v.1.15,2013-05-20 16:10:00,
2013-05-20 12:15:00,81.0,68.6,29.87,SSW,194,6.0,9.0,66,0.00,,,0.00,Wunderground v.1.15,2013-05-20 16:15:00,
2013-05-20 12:20:00,80.9,68.9,29.87,SW,217,6.0,6.0,67,0.00,,,0.00,Wunderground v.1.15,2013-05-20 16:20:00,
2013-05-20 12:30:00,81.4,68.5,29.87,WSW,248,6.0,7.0,65,0.00,,,0.00,Wunderground v.1.15,2013-05-20 16:30:00,
2013-05-20 12:35:00,81.1,68.2,29.87,WSW,249,7.0,8.0,65,0.00,,,0.00,Wunderground v.1.15,2013-05-20 16:35:00,
2013-05-20 12:40:00,81.7,68.3,29.86,WSW,253,8.0,8.0,64,0.00,,,0.00,Wunderground v.1.15,2013-05-20 16:40:00,
2013-05-20 12:45:00,82.9,68.5,29.85,SSW,209,6.0,15.0,62,0.00,,,0.00,Wunderground v.1.15,2013-05-20 16:45:00,
2013-05-20 12:50:00,82.8,68.9,29.85,WSW,257,8.0,8.0,63,0.00,,,0.00,Wunderground v.1.15,2013-05-20 16:50:00,
2013-05-20 13:00:00,82.5,68.6,29.85,South,172,7.0,12.0,63,0.00,,,0.00,Wunderground v.1.15,2013-05-20 17:00:00,
2013-05-20 13:10:00,83.5,68.6,29.84,SW,215,7.0,9.0,61,0.00,,,0.00,Wunderground v.1.15,2013-05-20 17:10:00,
2013-05-20 13:15:00,83.7,68.8,29.84,South,178,7.0,16.0,61,0.00,,,0.00,Wunderground v.1.15,2013-05-20 17:15:00,
2013-05-20 13:20:00,84.0,68.1,29.84,SSW,195,8.0,8.0,59,0.00,,,0.00,Wunderground v.1.15,2013-05-20 17:20:00,
2013-05-20 13:25:00,84.3,67.9,29.83,SSW,198,7.0,8.0,58,0.00,,,0.00,Wunderground v.1.15,2013-05-20 17:25:00,
2013-05-20 13:35:00,84.2,68.3,29.83,South,187,6.0,7.0,59,0.00,,,0.00,Wunderground v.1.15,2013-05-20 17:35:00,
2013-05-20 13:40:00,85.0,68.6,29.83,SSE,148,7.0,7.0,58,0.00,,,0.00,Wunderground v.1.15,2013-05-20 17:40:00,
2013-05-20 13:45:00,85.3,68.8,29.83,SSE,167,7.0,8.0,58,0.00,,,0.00,Wunderground v.1.15,2013-05-20 17:45:00,
2013-05-20 13:50:00,84.7,68.3,29.82,SW,215,8.0,13.0,58,0.00,,,0.00,Wunderground v.1.15,2013-05-20 17:50:00,
2013-05-20 13:55:00,84.4,68.5,29.82,SSE,156,9.0,13.0,59,0.00,,,0.00,Wunderground v.1.15,2013-05-20 17:55:00,
2013-05-20 14:00:00,85.2,67.7,29.82,SSE,166,9.0,9.0,56,0.00,,,0.00,Wunderground v.1.15,2013-05-20 18:00:00,
2013-05-20 14:10:00,85.2,67.7,29.82,SSE,153,10.0,10.0,56,0.00,,,0.00,Wunderground v.1.15,2013-05-20 18:10:00,
2013-05-20 14:15:00,85.7,67.1,29.82,SSW,194,9.0,10.0,54,0.00,,,0.00,Wunderground v.1.15,2013-05-20 18:15:00,
2013-05-20 14:20:00,86.3,67.7,29.81,SSW,210,8.0,8.0,54,0.00,,,0.00,Wunderground v.1.15,2013-05-20 18:20:00,
2013-05-20 14:25:00,86.2,67.6,29.81,ESE,107,8.0,8.0,54,0.00,,,0.00,Wunderground v.1.15,2013-05-20 18:25:00,
2013-05-20 14:30:00,86.3,67.7,29.81,SSE,167,10.0,11.0,54,0.00,,,0.00,Wunderground v.1.15,2013-05-20 18:30:00,
2013-05-20 14:35:00,86.4,67.8,29.81,South,183,10.0,11.0,54,0.00,,,0.00,Wunderground v.1.15,2013-05-20 18:35:00,
2013-05-20 14:40:00,86.7,67.5,29.81,SW,231,9.0,9.0,53,0.00,,,0.00,Wunderground v.1.15,2013-05-20 18:40:00,
2013-05-20 14:45:00,87.2,68.0,29.81,South,179,8.0,9.0,53,0.00,,,0.00,Wunderground v.1.15,2013-05-20 18:45:00,
2013-05-20 14:50:00,87.4,67.1,29.81,SW,222,8.0,8.0,51,0.00,,,0.00,Wunderground v.1.15,2013-05-20 18:50:00,
2013-05-20 14:55:00,86.7,67.0,29.81,SSW,200,9.0,9.0,52,0.00,,,0.00,Wunderground v.1.15,2013-05-20 18:55:00,
2013-05-20 15:05:00,86.0,66.9,29.81,WSW,239,9.0,9.0,53,0.00,,,0.00,Wunderground v.1.15,2013-05-20 19:05:00,
2013-05-20 15:10:00,85.9,66.8,29.81,South,181,8.0,8.0,53,0.00,,,0.00,Wunderground v.1.15,2013-05-20 19:10:00,
2013-05-20 15:15:00,86.1,66.4,29.81,West,263,8.0,8.0,52,0.00,,,0.00,Wunderground v.1.15,2013-05-20 19:15:00,
2013-05-20 15:20:00,86.5,66.8,29.81,WSW,239,8.0,8.0,52,0.00,,,0.00,Wunderground v.1.15,2013-05-20 19:20:00,
2013-05-20 15:25:00,87.4,67.6,29.81,SSW,194,8.0,8.0,52,0.00,,,0.00,Wunderground v.1.15,2013-05-20 19:25:00,
2013-05-20 15:30:00,87.3,67.0,29.81,SSE,159,9.0,10.0,51,0.00,,,0.00,Wunderground v.1.15,2013-05-20 19:30:00,
2013-05-20 15:40:00,87.4,66.5,29.80,SW,236,8.0,8.0,50,0.00,,,0.00,Wunderground v.1.15,2013-05-20 19:40:00,
2013-05-20 15:45:00,87.2,66.9,29.80,SSW,205,7.0,10.0,51,0.00,,,0.00,Wunderground v.1.15,2013-05-20 19:45:00,
2013-05-20 15:50:00,86.6,66.3,29.80,South,173,8.0,10.0,51,0.00,,,0.00,Wunderground v.1.15,2013-05-20 19:50:00,
2013-05-20 15:55:00,86.3,66.6,29.80,SSW,201,9.0,10.0,52,0.00,,,0.00,Wunderground v.1.15,2013-05-20 19:55:00,
2013-05-20 16:00:00,86.7,66.4,29.79,WSW,239,10.0,14.0,51,0.00,,,0.00,Wunderground v.1.15,2013-05-20 20:00:00,
2013-05-20 16:10:00,86.7,67.0,29.79,WSW,242,11.0,13.0,52,0.00,,,0.00,Wunderground v.1.15,2013-05-20 20:10:00,
2013-05-20 16:15:00,86.7,65.8,29.80,SW,235,11.0,13.0,50,0.00,,,0.00,Wunderground v.1.15,2013-05-20 20:15:00,
2013-05-20 16:20:00,86.6,66.3,29.79,SSW,212,10.0,10.0,51,0.00,,,0.00,Wunderground v.1.15,2013-05-20 20:20:00,
2013-05-20 16:25:00,86.6,65.7,29.79,WSW,238,9.0,12.0,50,0.00,,,0.00,Wunderground v.1.15,2013-05-20 20:25:00,
2013-05-20 16:30:00,86.1,65.3,29.80,WSW,245,11.0,13.0,50,0.00,,,0.00,Wunderground v.1.15,2013-05-20 20:30:00,
2013-05-20 16:35:00,85.8,66.1,29.79,SW,233,10.0,13.0,52,0.00,,,0.00,Wunderground v.1.15,2013-05-20 20:35:00,
2013-05-20 16:45:00,84.3,67.9,29.80,SW,214,8.0,9.0,58,0.00,,,0.02,Wunderground v.1.15,2013-05-20 20:45:00,
2013-05-20 16:50:00,80.6,68.2,29.79,WNW,294,8.0,8.0,66,0.47,,,0.08,Wunderground v.1.15,2013-05-20 20:50:00,
2013-05-20 16:55:00,76.5,64.3,29.79,NW,325,7.0,8.0,66,0.11,,,0.08,Wunderground v.1.15,2013-05-20 20:55:00,
2013-05-20 17:00:00,73.7,65.3,29.80,NNW,338,4.0,4.0,75,0.06,,,0.08,Wunderground v.1.15,2013-05-20 21:00:00,
2013-05-20 17:10:00,74.5,67.2,29.79,South,174,3.0,3.0,78,0.00,,,0.08,Wunderground v.1.15,2013-05-20 21:10:00,
2013-05-20 17:20:00,79.9,68.0,29.79,WSW,246,5.0,5.0,67,0.00,,,0.08,Wunderground v.1.15,2013-05-20 21:20:00,
2013-05-20 17:25:00,81.4,67.1,29.80,West,270,5.0,6.0,62,0.00,,,0.08,Wunderground v.1.15,2013-05-20 21:25:00,
2013-05-20 17:30:00,82.8,67.5,29.80,West,262,6.0,6.0,60,0.00,,,0.08,Wunderground v.1.15,2013-05-20 21:30:00,
2013-05-20 17:35:00,83.8,64.8,29.80,West,281,8.0,10.0,53,0.00,,,0.08,Wunderground v.1.15,2013-05-20 21:35:00,
2013-05-20 17:40:00,84.7,65.1,29.80,WSW,245,8.0,9.0,52,0.00,,,0.08,Wunderground v.1.15,2013-05-20 21:40:00,
2013-05-20 17:50:00,85.8,63.8,29.80,SW,229,7.0,16.0,48,0.00,,,0.08,Wunderground v.1.15,2013-05-20 21:50:00,
2013-05-20 17:55:00,85.7,63.8,29.80,SSW,212,8.0,16.0,48,0.00,,,0.08,Wunderground v.1.15,2013-05-20 21:55:00,
2013-05-20 18:00:00,85.7,63.8,29.80,SW,236,9.0,9.0,48,0.00,,,0.08,Wunderground v.1.15,2013-05-20 22:00:00,
2013-05-20 18:10:00,85.6,63.1,29.80,SW,229,9.0,14.0,47,0.00,,,0.08,Wunderground v.1.15,2013-05-20 22:10:00,
2013-05-20 18:15:00,85.6,63.1,29.80,SW,229,10.0,14.0,47,0.00,,,0.08,Wunderground v.1.15,2013-05-20 22:15:00,
2013-05-20 18:20:00,85.3,63.4,29.80,WSW,255,10.0,10.0,48,0.00,,,0.08,Wunderground v.1.15,2013-05-20 22:20:00,
2013-05-20 18:25:00,84.8,62.9,29.80,SSW,201,10.0,13.0,48,0.00,,,0.08,Wunderground v.1.15,2013-05-20 22:25:00,
2013-05-20 18:30:00,84.5,63.2,29.80,SW,219,10.0,10.0,49,0.00,,,0.08,Wunderground v.1.15,2013-05-20 22:30:00,
2013-05-20 18:35:00,84.3,63.1,29.80,WSW,253,9.0,10.0,49,0.00,,,0.08,Wunderground v.1.15,2013-05-20 22:35:00,
2013-05-20 18:40:00,84.3,63.1,29.80,SW,217,8.0,8.0,49,0.00,,,0.08,Wunderground v.1.15,2013-05-20 22:40:00,
2013-05-20 18:45:00,84.3,63.6,29.79,West,278,8.0,8.0,50,0.00,,,0.08,Wunderground v.1.15,2013-05-20 22:45:00,
2013-05-20 18:55:00,84.4,63.7,29.78,SSW,207,7.0,7.0,50,0.00,,,0.08,Wunderground v.1.15,2013-05-20 22:55:00,
2013-05-20 19:00:00,84.3,63.6,29.78,SW,219,8.0,8.0,50,0.00,,,0.08,Wunderground v.1.15,2013-05-20 23:00:00,
2013-05-20 19:10:00,84.0,63.4,29.77,WSW,253,8.0,8.0,50,0.00,,,0.08,Wunderground v.1.15,2013-05-20 23:10:00,
2013-05-20 19:15:00,83.5,62.9,29.78,SW,229,7.0,10.0,50,0.00,,,0.08,Wunderground v.1.15,2013-05-20 23:15:00,
2013-05-20 19:25:00,82.7,63.3,29.78,SW,214,6.0,7.0,52,0.00,,,0.08,Wunderground v.1.15,2013-05-20 23:25:00,
2013-05-20 19:30:00,82.5,63.1,29.78,SSW,212,3.0,6.0,52,0.00,,,0.08,Wunderground v.1.15,2013-05-20 23:30:00,
2013-05-20 19:35:00,82.5,63.6,29.78,SW,232,4.0,6.0,53,0.00,,,0.08,Wunderground v.1.15,2013-05-20 23:35:00,
2013-05-20 19:40:00,82.6,63.7,29.79,SW,215,5.0,5.0,53,0.00,,,0.08,Wunderground v.1.15,2013-05-20 23:40:00,
2013-05-20 19:45:00,82.8,63.9,29.78,SW,226,4.0,5.0,53,0.00,,,0.08,Wunderground v.1.15,2013-05-20 23:45:00,
2013-05-20 19:50:00,82.9,64.0,29.78,SW,222,4.0,4.0,53,0.00,,,0.08,Wunderground v.1.15,2013-05-20 23:50:00,
2013-05-20 20:00:00,83.0,64.6,29.79,SSW,204,4.0,4.0,54,0.00,,,0.08,Wunderground v.1.15,2013-05-21 00:00:00,
2013-05-20 20:10:00,82.7,65.4,29.78,SW,233,5.0,8.0,56,0.00,,,0.08,Wunderground v.1.15,2013-05-21 00:10:00,
2013-05-20 20:15:00,82.5,65.7,29.78,SSW,209,7.0,8.0,57,0.00,,,0.08,Wunderground v.1.15,2013-05-21 00:15:00,
2013-05-20 20:20:00,82.3,65.5,29.79,SW,224,6.0,6.0,57,0.00,,,0.08,Wunderground v.1.15,2013-05-21 00:20:00,
2013-05-20 20:30:00,81.7,65.5,29.79,South,184,5.0,5.0,58,0.00,,,0.08,Wunderground v.1.15,2013-05-21 00:30:00,
2013-05-20 20:35:00,81.4,65.2,29.79,South,179,5.0,5.0,58,0.00,,,0.08,Wunderground v.1.15,2013-05-21 00:35:00,
2013-05-20 20:40:00,81.1,65.4,29.79,South,170,5.0,5.0,59,0.00,,,0.08,Wunderground v.1.15,2013-05-21 00:40:00,
2013-05-20 20:45:00,80.8,65.1,29.79,SSW,201,5.0,5.0,59,0.00,,,0.08,Wunderground v.1.15,2013-05-21 00:45:00,
2013-05-20 20:50:00,80.5,64.9,29.79,SW,226,5.0,5.0,59,0.00,,,0.08,Wunderground v.1.15,2013-05-21 00:50:00,
2013-05-20 20:55:00,80.2,65.1,29.79,SSE,161,4.0,5.0,60,0.00,,,0.08,Wunderground v.1.15,2013-05-21 00:55:00,
2013-05-20 21:00:00,79.9,64.8,29.79,SSW,198,3.0,6.0,60,0.00,,,0.08,Wunderground v.1.15,2013-05-21 01:00:00,
2013-05-20 21:10:00,79.6,65.0,29.79,South,191,3.0,3.0,61,0.00,,,0.08,Wunderground v.1.15,2013-05-21 01:10:00,
2013-05-20 21:15:00,79.2,65.1,29.79,SSW,204,3.0,3.0,62,0.00,,,0.08,Wunderground v.1.15,2013-05-21 01:15:00,
2013-05-20 21:20:00,78.8,65.1,29.79,SSW,206,3.0,3.0,63,0.00,,,0.08,Wunderground v.1.15,2013-05-21 01:20:00,
2013-05-20 21:25:00,78.5,65.3,29.79,SSE,166,3.0,3.0,64,0.00,,,0.08,Wunderground v.1.15,2013-05-21 01:25:00,
2013-05-20 21:35:00,77.7,65.4,29.79,South,172,2.0,3.0,66,0.00,,,0.08,Wunderground v.1.15,2013-05-21 01:35:00,
2013-05-20 21:40:00,77.4,65.1,29.79,South,177,2.0,2.0,66,0.00,,,0.08,Wunderground v.1.15,2013-05-21 01:40:00,
2013-05-20 21:45:00,77.1,65.3,29.79,South,187,2.0,2.0,67,0.00,,,0.08,Wunderground v.1.15,2013-05-21 01:45:00,
2013-05-20 21:50:00,76.8,65.4,29.79,SSW,207,2.0,2.0,68,0.00,,,0.08,Wunderground v.1.15,2013-05-21 01:50:00,
2013-05-20 21:55:00,76.6,65.2,29.79,SE,139,2.0,2.0,68,0.00,,,0.08,Wunderground v.1.15,2013-05-21 01:55:00,
2013-05-20 22:00:00,76.4,65.5,29.79,SSE,166,2.0,2.0,69,0.00,,,0.08,Wunderground v.1.15,2013-05-21 02:00:00,
2013-05-20 22:10:00,76.5,65.6,29.80,South,176,3.0,3.0,69,0.00,,,0.08,Wunderground v.1.15,2013-05-21 02:10:00,
2013-05-20 22:15:00,76.5,65.6,29.80,SSE,162,3.0,4.0,69,0.00,,,0.08,Wunderground v.1.15,2013-05-21 02:15:00,
2013-05-20 22:20:00,76.4,65.5,29.80,SSE,158,3.0,5.0,69,0.00,,,0.08,Wunderground v.1.15,2013-05-21 02:20:00,
2013-05-20 22:25:00,76.4,65.5,29.80,SSW,201,3.0,5.0,69,0.00,,,0.08,Wunderground v.1.15,2013-05-21 02:25:00,
2013-05-20 22:30:00,76.3,65.8,29.81,SW,234,3.0,3.0,70,0.00,,,0.08,Wunderground v.1.15,2013-05-21 02:30:00,
2013-05-20 22:40:00,76.2,65.7,29.81,WSW,238,2.0,2.0,70,0.00,,,0.08,Wunderground v.1.15,2013-05-21 02:40:00,
2013-05-20 22:45:00,76.0,65.5,29.81,SSW,194,3.0,3.0,70,0.00,,,0.08,Wunderground v.1.15,2013-05-21 02:45:00,
2013-05-20 22:50:00,75.8,65.7,29.81,WSW,242,2.0,3.0,71,0.00,,,0.08,Wunderground v.1.15,2013-05-21 02:50:00,
2013-05-20 22:55:00,75.6,65.5,29.81,SW,222,2.0,3.0,71,0.00,,,0.08,Wunderground v.1.15,2013-05-21 02:55:00,
2013-05-20 23:00:00,75.7,65.6,29.81,SW,214,2.0,4.0,71,0.00,,,0.08,Wunderground v.1.15,2013-05-21 03:00:00,
2013-05-20 23:10:00,75.4,65.3,29.80,SSW,204,2.0,2.0,71,0.00,,,0.08,Wunderground v.1.15,2013-05-21 03:10:00,
2013-05-20 23:15:00,75.3,65.6,29.80,South,177,2.0,2.0,72,0.00,,,0.08,Wunderground v.1.15,2013-05-21 03:15:00,
2013-05-20 23:20:00,75.2,65.6,29.80,SSW,201,2.0,2.0,72,0.00,,,0.08,Wunderground v.1.15,2013-05-21 03:20:00,
2013-05-20 23:25:00,74.9,65.3,29.80,SSW,207,2.0,3.0,72,0.00,,,0.08,Wunderground v.1.15,2013-05-21 03:25:00,
2013-05-20 23:30:00,74.8,65.2,29.80,SW,217,2.0,2.0,72,0.00,,,0.08,Wunderground v.1.15,2013-05-21 03:30:00,
2013-05-20 23:35:00,74.6,65.4,29.81,SSE,167,1.0,2.0,73,0.00,,,0.08,Wunderground v.1.15,2013-05-21 03:35:00,
2013-05-20 23:45:00,74.3,65.1,29.81,SSW,203,1.0,2.0,73,0.00,,,0.08,Wunderground v.1.15,2013-05-21 03:45:00,
2013-05-20 23:50:00,74.1,65.3,29.81,SW,223,1.0,1.0,74,0.00,,,0.08,Wunderground v.1.15,2013-05-21 03:50:00,
2013-05-20 23:55:00,73.9,65.1,29.81,South,183,2.0,3.0,74,0.00,,,0.08,Wunderground v.1.15,2013-05-21 03:55:00,